This demonstration page uses our WeatherBlox Daily Observations layout. Learn more.

Left ArrowRight Arrow

Hourly Observations for April 25, 2019

Temp ( °F °C ) Dew Point ( °F °C ) Humidity (%) Winds ( mph kmh ) Pressure ( in mb ) Visibility ( mi km ) Precip ( " mm )
12:52 am 00:52 Clear 59 15 50 10 72 72 S 7 11 29.75 1008 10 16 0.00 0.00
1:52 am 01:52 Clear 58 14.4 50 10 75 75 SSE 6 9 29.74 1007 10 16 0.00 0.00
2:52 am 02:52 Clear 56 13.3 50 10 81 81 SSE 7 11 29.73 1007 10 16 0.00 0.00
3:52 am 03:52 Mostly Clear 53 11.7 47 8.3 80 80 S 6 9 29.75 1007 10 16 0.00 0.00
4:52 am 04:52 Mostly Clear 53 11.7 46 7.8 77 77 SSE 8 13 29.74 1007 10 16 0.00 0.00
5:52 am 05:52 Partly Cloudy 55 12.8 44 6.7 67 67 SW 3 6 29.74 1007 10 16 0.00 0.00
6:52 am 06:52 Mostly Cloudy 60 15.6 49 9.4 67 67 NNW 23 37 29.77 1008 10 16 0.00 0.00
7:52 am 07:52 Mostly Cloudy 59 15 50 10 72 72 N 29 46 29.80 1009 10 16 0.00 0.00
8:52 am 08:52 Cloudy 60 15.6 49 9.4 67 67 N 24 39 29.83 1010 10 16 0.00 0.00
9:52 am 09:52 Cloudy with Light Rain 58 14.4 51 10.6 78 78 NNE 17 28 29.84 1011 7 11 0.01 0.25
10:33 am 10:33 Cloudy 58 14.4 52 11.1 81 81 N 20 31 29.87 1012 10 16 0.01 0.25
10:52 am 10:52 Cloudy with Light Rain 58 14.4 51 10.6 78 78 N 23 37 29.88 1012 10 16 0.01 0.25
11:33 am 11:33 Cloudy with Light Rain 57 13.9 51 10.6 81 81 N 20 31 29.91 1013 7 11 0.00 0.03
11:52 am 11:52 Mostly Cloudy 57 13.9 50 10 78 78 N 18 30 29.91 1013 10 16 0.00 0.03
12:30 pm 12:30 Mostly Cloudy 59 15 49 9.4 69 69 NNE 18 30 29.92 1013 10 16 0.00 0.00
12:52 pm 12:52 Mostly Cloudy 61 16.1 49 9.4 65 65 NNE 17 28 29.92 1013 10 16 0.00 0.00
1:52 pm 13:52 Partly Cloudy 65 18.3 47 8.3 52 52 N 15 24 29.93 1013 10 16 0.00 0.00
2:52 pm 14:52 Partly Cloudy 69 20.6 43 6.1 39 39 N 14 22 29.92 1013 10 16 0.00 0.00
3:52 pm 15:52 Partly Cloudy 71 21.7 38 3.3 30 30 N 17 28 29.92 1013 10 16 0.00 0.00
4:52 pm 16:52 Partly Cloudy 72 22.2 40 4.4 31 31 NNW 13 20 29.92 1013 10 16 0.00 0.00
5:52 pm 17:52 Partly Cloudy 72 22.2 31 -0.6 22 22 N 20 31 29.92 1013 10 16 0.00 0.00
6:52 pm 18:52 Partly Cloudy 71 21.7 34 1.1 26 26 N 18 30 29.92 1013 10 16 0.00 0.00
7:52 pm 19:52 Partly Cloudy 68 20 33 0.6 27 27 NNW 16 26 29.94 1014 10 16 0.00 0.00
8:52 pm 20:52 Mostly Cloudy 65 18.3 37 2.8 36 36 NW 10 17 29.97 1015 10 16 0.00 0.00
9:52 pm 21:52 Mostly Cloudy 64 17.8 36 2.2 35 35 NW 14 22 30.00 1016 10 16 0.00 0.00
10:52 pm 22:52 Mostly Clear 59 15 41 5 51 51 N 12 19 30.04 1017 10 16 0.00 0.00
11:52 pm 23:52 Clear 56 13.3 42 5.6 60 60 NNW 5 7 30.05 1018 10 16 0.00 0.00

Powered by AerisWeather